sat.trackr.live / text

‹ back to catalog

KUIPER-00519

NORAD 68890 · 2026-095AC

PAYLOAD ACTIVE UNKNOWN

§ Identity

Operator
Country
US
Launch date
2026-04-28
Launch site
AFETR
Launch vehicle
Mass (kg)
RCS (m²)

External: N2YO · Heavens-Above · Gunter

§ Orbital elements

Epoch: 2026-09-19T12:26:01.035456Z

Period
97.30 min
Inclination
51.9006°
Eccentricity
0.0000582
Mean motion
14.79929827 rev/d
Perigee alt
629.1 km
Apogee alt
630.0 km
Semi-major
7,007.7 km
B*
1.5068e-4
RAAN
181.1069°
Arg perigee
65.8473°
Mean anomaly
294.2551°
Rev number
2,175

§ Raw data

KUIPER-005191 68890U 26095AC  26262.51806754  .00000928  00000+0  15068-3 0  99982 68890  51.9006 181.1069 0000582  65.8473 294.2551 14.79929827 21759

JSON: /api/v1/satellites/68890 · /tle

For live sub-satellite position, see the globe view (requires WebGL).

§ Visibility from observer

Set your observer location to see the next 7 days of passes ≥ 10°. The values pass through the URL so the page stays shareable.

No JS? Fill the form by hand. The geolocation button needs JavaScript.